Great Falls International Airport Great Falls US
ICAO: KGTF
IATA: GTF
Category: Medium
Scheduled Services: Yes

Elevation: 3680 ft
TransAlt. 18000 ft.

Airport Communications:
APP/DEP:128.6
ATIS:126.6
GND/CLNC DEL:121.7
ANG OPS MAINT:28.89
RDO:122.6
TWR:118.7
UNICOM:122.95

KGTF Zoom In..

Runways:

(A) RW 03 length 10502 ft width 150 ft
ILS 111.30 / hdg 29

(B) RW 07 length 4294 ft width 75 ft
---- / hdg 74

(C) RW 16 length 5722 ft width 150 ft
---- / hdg 164

(D) RW 21 length 10502 ft width 150 ft
---- / hdg 209

(E) RW 25 length 4294 ft width 75 ft
---- / hdg 254

(F) RW 34 length 5722 ft width 150 ft
---- / hdg 344

Location; KGTF
Day. 19 / Time. 20.53 Zulu
* Altimeter: 30.07
* Temperature: 14° c. 57.2°f.
* Wind from: 140° Speed 04 kn.
Dewpoint: -02° c.
Visibility: 10 Statute Miles.
Clouds: Clear (automated report).

KGTF 192053Z 14004KT 10SM CLR 14/M02 A3007 RMK AO2 SLP198 T01391017 56018


Wind From 140°
Speed 04 kn.

  YouTube Music Video
 
jpsmedia.com for Web Design  worldairports.se 2018   terms of use